Location: Unspecified
(44.4377°N, 88.0525°W)
Time: 13:29:20
(UTC-05:00)

CZ-3 Stage 3 - Visible Passes

Search period start: 25 August 2016 00:00
Search period end: 04 September 2016 00:00
Orbit: 481 x 34722 km, 30.5° (Epoch: 24 August)

Date Brightness Start Highest point End Pass type
(mag) Time Alt. Az. Time Alt. Az. Time Alt. Az.
27 Aug 5.2 21:33:47 10° W 22:08:57 30° SW 22:13:39 21° S visible
30 Aug 5.2 21:24:37 10° W 22:00:15 29° SW 22:05:20 19° S visible
02 Sep 5.3 21:15:26 10° W 21:51:30 28° SW 21:57:01 17° S visible
